Погода в Затеречном

Россия / Ставропольский край     44°47′39″N   45°12′39″E
темп.,
°C
ветер,
м/с
пор.,
м/с
влажн.,
%
обл.,
%
осадки,
мм/ч
давл.,
гПа
погр.,
м
18 апреля, вс
вс1800:00+13ссз4674100 0.0 1022294
03:00+12ссв4585100 0.0 1021295
06:00+12св2492100 0.4 1020236
09:00+13в1279100 1.1 1019464
12:00+13св3484100 1.1 1018286
15:00+16всв227127 1.6 1017664
18:00+16всв23713 0.0 1018106
21:00+13вюв448412 0.0 101759
19 апреля, пн
пн1900:00+12вюв3389100 0.0 101749
03:00+11ююв3378100 0.0 101734
06:00+12ю2374100 0.0 101753
09:00+13юв4773100 1.4 1016190
12:00+14юз1274100 0.8 1018219
15:00+15св2275100 1.6 1016189
18:00+16в3576100 0.0 1014156
21:00+13всв478594 0.0 1016128
20 апреля, вт
вт2000:00+13в4877100 0.0 1015153
03:00+11в4879100 0.0 1014168
06:00+12вюв61475100 0.0 1012419
09:00+17юв101757100 0.0 1009653
12:00+21вюв91347100 0.0 1007809
15:00+23вюв81141100 0.0 1006897
18:00+19вюв91455100 0.0 1005551
21:00+14вюв91471100 0.5 1007346
21 апреля, ср
ср2100:00+14в3472100 0.1 101095
03:00+13ссз5882100 0.4 1012277
06:00+14с7147671 0.0 1014596
09:00+13ссз81372100 0.0 1018859
12:00+11ссз81377100 0.1 1020775
15:00+12ссз4877100 0.1 1020522
18:00+12з3479100 0.0 1021171
21:00+11зсз4684100 0.0 1022223
22 апреля, чт
чт2200:00+11зсз4886100 0.0 1022248
03:00+11сз3684100 0.0 1022182
06:00+11ссз2484100 0.0 1022147
09:00+12ссз3580100 0.0 1023327
12:00+14сз346995 0.0 1022654
15:00+12зюз5689100 3.3 1022275
18:00+12зсз4883100 0.7 1022317
21:00+12зсз3481100 0.7 102186